West Palm Beach, FL

2:27 PM EST on November 11, 2019 (GMT -0500)
Palm Beach International

Weather History for KPBI - September, 2019

Change the Weather History Date:

Tuesday, September 17, 2019

  Actual Average Record
Temperature  
Mean Temperature 84 °F 82 °F  
Max Temperature 92 °F 88 °F 95 °F (1938)
Min Temperature 75 °F 75 °F 68 °F (1961)
Degree Days  
Heating Degree Days 0 0  
Month to date heating degree days 0 0  
Since 1 July heating degree days 0 0  
Cooling Degree Days 19 17  
Month to date cooling degree days 324 289  
Year to date cooling degree days 3490 2995  
Growing Degree Days 33 (Base 50)    
Moisture  
Dew Point 73 °F    
Average Humidity 73    
Maximum Humidity 94    
Minimum Humidity 52    
Precipitation  
Precipitation 0.00 in 0.30 in 5.19 in (1960)
Month to date precipitation 1.25 4.83  
Year to date precipitation 45.21 45.55  
Snow  
Snow 0.00 in - - ()
Month to date snowfall 0.0  
Since 1 July snowfall 0.0  
Since 1 September snowfall 0.0  
Snow Depth 0.00 in    
Sea Level Pressure  
Sea Level Pressure 29.92 in    
Wind  
Wind Speed 8 mph (NW)    
Max Wind Speed 17 mph    
Max Gust Speed 22 mph    
Visibility 10 miles    
Events      
T = Trace of Precipitation, MM = Missing Value Source: NWS Daily Summary

Daily Weather History Graph

Daily Weather History Graph

Search for Another Location

Airport or City:

Astronomy

Sep. 17, 2019 Rise Set
Actual Time 7:06 AM EDT 7:22 PM EDT
Civil Twilight 6:43 AM EDT 7:45 PM EDT
Nautical Twilight 6:16 AM EDT 8:12 PM EDT
Astronomical Twilight 5:49 AM EDT 8:40 PM EDT
Moon 9:42 PM EDT (9/17) 9:55 AM EDT (9/17)
Length of Visible Light 13h 02m
Length of Day
12h 16m
Waning Gibbous, 89% of the Moon is Illuminated
Sep 17
Waning Gibbous
Sep 21
Last Quarter
Sep 28
New
Oct 5
First Quarter
Oct 13
Full

Hourly Weather History & Observations

Time (EDT) Temp. Heat Index Dew Point Humidity Pressure Visibility Wind Dir Wind Speed Gust Speed Precip Events Conditions
12:53 AM 79.0 °F - 75.0 °F 88% 29.92 in 10.0 mi NW 4.6 mph - N/A   Partly Cloudy
1:53 AM 79.0 °F - 75.0 °F 88% 29.91 in 10.0 mi NW 6.9 mph - N/A   Partly Cloudy
2:53 AM 78.1 °F - 75.0 °F 90% 29.90 in 10.0 mi West 6.9 mph - N/A   Partly Cloudy
3:53 AM 75.9 °F - 73.9 °F 94% 29.89 in 10.0 mi WNW 4.6 mph - N/A   Partly Cloudy
4:53 AM 75.9 °F - 73.9 °F 94% 29.89 in 10.0 mi West 5.8 mph - N/A   Partly Cloudy
5:53 AM 75.9 °F - 73.9 °F 94% 29.91 in 10.0 mi West 4.6 mph - N/A   Partly Cloudy
6:53 AM 75.9 °F - 73.0 °F 91% 29.92 in 10.0 mi West 4.6 mph - N/A   Partly Cloudy
7:53 AM 75.9 °F - 73.9 °F 94% 29.94 in 10.0 mi WNW 5.8 mph - N/A   Partly Cloudy
8:53 AM 80.1 °F 85.1 °F 75.0 °F 85% 29.96 in 10.0 mi WNW 8.1 mph - N/A   Clear
9:53 AM 82.9 °F 90.2 °F 75.0 °F 77% 29.96 in 10.0 mi NNW 11.5 mph - N/A   Partly Cloudy
10:53 AM 84.9 °F 92.1 °F 73.9 °F 69% 29.96 in 10.0 mi NW 8.1 mph - N/A   Scattered Clouds
11:53 AM 88.0 °F 94.7 °F 72.0 °F 59% 29.95 in 10.0 mi NNW 13.8 mph - N/A   Scattered Clouds
12:53 PM 89.1 °F 94.1 °F 70.0 °F 53% 29.94 in 10.0 mi NW 10.4 mph - N/A   Scattered Clouds
1:53 PM 90.0 °F 94.5 °F 69.1 °F 50% 29.93 in 10.0 mi Variable 6.9 mph - N/A   Scattered Clouds
2:53 PM 90.0 °F 94.5 °F 69.1 °F 50% 29.91 in 10.0 mi NW 12.7 mph - N/A   Scattered Clouds
3:53 PM 89.1 °F 93.7 °F 69.1 °F 52% 29.89 in 10.0 mi NNE 13.8 mph 20.7 mph N/A   Scattered Clouds
4:53 PM 89.1 °F 95.0 °F 71.1 °F 55% 29.89 in 10.0 mi NE 12.7 mph - N/A   Scattered Clouds
5:53 PM 87.1 °F 92.8 °F 71.1 °F 59% 29.89 in 10.0 mi North 15.0 mph - N/A   Scattered Clouds
6:53 PM 84.9 °F 90.7 °F 72.0 °F 65% 29.90 in 10.0 mi North 15.0 mph - N/A   Partly Cloudy
7:53 PM 84.0 °F 89.0 °F 71.1 °F 65% 29.91 in 10.0 mi North 8.1 mph - N/A   Partly Cloudy
8:53 PM 82.9 °F 88.0 °F 72.0 °F 69% 29.92 in 10.0 mi North 5.8 mph - N/A   Partly Cloudy
9:53 PM 82.0 °F 87.4 °F 73.0 °F 74% 29.94 in 10.0 mi North 4.6 mph - N/A   Partly Cloudy
10:53 PM 81.0 °F 85.8 °F 73.0 °F 77% 29.94 in 10.0 mi North 4.6 mph - N/A   Scattered Clouds
11:53 PM 78.1 °F - 73.0 °F 84% 29.94 in 10.0 mi NW 5.8 mph - N/A   Scattered Clouds